Tracking 19969 objects as of 12-Nov-2019
Live streaming from Space Station
objects crossing your sky now
Track the group of recently launched Starlink satellites

SSA

Track SSA now!
10-day predictions
SSA is classified as:


NORAD ID: 13844
Int'l Code: 1983-008E
Perigee: 386.6 km
Apogee: 1,734.0 km
Inclination: 63.3 °
Period: 106.3 minutes
Semi major axis: 7431 km
RCS: Unknown
Launch date: February 9, 1983
Source: United States (US)
Launch site: AIR FORCE WESTERN TEST RANGE (AFWTR)
aabbcc
Your satellite tracking list
Your tracking list is empty




NASA's NSSDC Master Catalog

Two Line Element Set (TLE):
1 13844U 83008E   19315.79499174  .00000483  00000-0  51788-4 0  9996
2 13844  63.2985  50.7421 0906517  91.3658 279.1256 13.55205118 30202
Source of the keplerian elements: McCants